Location: ???????
(55.4362°N, 38.1183°E)
Time: 12:01:04
(UTC+00:00)

deb Delta 139 - Pass Details

Date: 01 February 2022
Orbit: 790 x 1093 km, 98.7° (Epoch: 23 May)

Event Time Altitude Azimuth Distance (km) Brightness Sun altitude
Rises 16:18:24 0° 219° (SW) 3,374 ? -19.2°
Reaches altitude 10° 16:21:40 10° 240° (WSW) 2,493 ? -19.6°
Maximum altitude 16:25:02 16° 278° (W) 2,141 ? -20.1°
Drops below altitude 10° 16:28:32 10° 316° (NW) 2,620 ? -20.6°
Sets 16:32:07 0° 337° (NNW) 3,635 ? -21.1°
